Location: Battersea Observatory
(44.4318°N, 76.3841°W)
Time: 22:26:06
(UTC-04:00)

Tiros 1 despin weight - Pass Details

Date: 25 January 2022
Orbit: 592 x 639 km, 48.2° (Epoch: 25 May)

Event Time Altitude Azimuth Distance (km) Brightness Sun altitude
Rises 17:48:44 0° 251° (WSW) 2,874 ? -8.0°
Reaches altitude 10° 17:51:01 10° 252° (WSW) 1,979 ? -8.4°
Maximum altitude 17:55:35 81° 340° (NNW) 637 ? -9.2°
Enters shadow 17:59:44 13° 68° (ENE) 1,817 ? -9.9°
Drops below altitude 10° 18:00:14 10° 68° (ENE) 2,015 - -10.0°
Sets 18:02:35 0° 70° (ENE) 2,931 - -10.4°
